Location: Burland Observatory
(39.4088°N, 105.4217°W)
Time: 00:58:18
(UTC-07:00)

Vanguard 3 - Pass Details

Date: 12 December 2019
Orbit: 507 x 3263 km, 33.4° (Epoch: 21 January)

Event Time Altitude Azimuth Distance (km) Brightness Sun altitude
Rises 09:24:17 0° 261° (W) 4,056 10.5 18.2°
Reaches altitude 10° 09:26:34 10° 258° (WSW) 3,362 10.1 18.5°
Maximum altitude 09:35:25 66° 179° (S) 2,095 9.9 19.5°
Drops below altitude 10° 09:51:09 10° 102° (ESE) 5,669 12.2 21.1°
Sets 09:56:17 0° 101° (E) 6,956 12.5 21.6°
